{"data":{"norad_id":52670,"epoch":"2026-05-24T18:41:45.522240Z","epoch_age_seconds":87442,"freshness":"FRESH","line1":"1 52670U 22053Q   26144.77899910 -.00000507  00000+0 -13757-4 0  9999","line2":"2 52670  53.2128 172.6122 0001103  78.2347 281.8769 15.08840589222533","mean_motion":15.08840589,"eccentricity":0.0001103,"inclination_deg":53.2128,"raan_deg":172.6122,"arg_perigee_deg":78.2347,"mean_anomaly_deg":281.8769,"bstar":-1.3757e-5,"rev_number":22253,"period_min":95.437517422193,"perigee_km":538.978546619,"apogee_km":540.50463063565,"semimajor_km":6917.8785886273,"source":"CELESTRAK","updated_at":"2026-05-25T13:38:17.232188Z"}}